| time (UTC) | temp F | wind direction | speed MPH | gust MPH | rain 1hr in | rain 24hr in | rain mn in | humidity % | barometer mb |
| 20260506051033 | 61 | 24 | 0.0 | 1.0 | 0.00 | 0.00 | 0.00 | 67 | 1009.6 |
| 20260506050530 | 61 | 28 | 0.0 | 4.0 | 0.00 | 0.00 | 0.00 | 66 | 1009.5 |
| 20260506045025 | 62 | 31 | 0.0 | 4.0 | 0.00 | 0.00 | 0.00 | 61 | 1009.5 |
| 20260506044524 | 63 | 32 | 2.0 | 3.0 | 0.00 | 0.00 | 0.00 | 58 | 1009.5 |
| 20260506044021 | 63 | 30 | 1.0 | 4.0 | 0.00 | 0.00 | 0.00 | 48 | 1009.6 |
| 20260506043523 | 63 | 30 | 1.0 | 5.0 | 0.00 | 0.00 | 0.00 | 47 | 1009.6 |
| 20260506043020 | 63 | 30 | 1.0 | 5.0 | 0.00 | 0.00 | 0.00 | 45 | 1009.4 |
| 20260506042522 | 63 | 21 | 2.0 | 4.0 | 0.00 | 0.00 | 0.00 | 43 | 1009.4 |
| 20260506042021 | 64 | 22 | 2.0 | 9.0 | 0.00 | 0.00 | 0.00 | 44 | 1009.5 |
| 20260506041520 | 64 | 29 | 4.0 | 10.0 | 0.00 | 0.00 | 0.00 | 43 | 1009.4 |
| 20260506041019 | 63 | 14 | 5.0 | 10.0 | 0.00 | 0.00 | 0.00 | 43 | 1009.4 |
| 20260506040519 | 63 | 355 | 5.0 | 8.0 | 0.00 | 0.00 | 0.00 | 44 | 1009.4 |
| 20260506040033 | 63 | 345 | 5.0 | 8.0 | 0.00 | 0.00 | 0.00 | 44 | 1009.5 |
| 20260506035519 | 63 | 10 | 3.0 | 6.0 | 0.00 | 0.00 | 0.00 | 44 | 1009.5 |
| 20260506035017 | 63 | 27 | 2.0 | 8.0 | 0.00 | 0.00 | 0.00 | 45 | 1009.4 |
| 20260506034516 | 63 | 9 | 2.0 | 8.0 | 0.00 | 0.00 | 0.00 | 44 | 1009.5 |
| 20260506034014 | 64 | 11 | 3.0 | 6.0 | 0.00 | 0.00 | 0.00 | 44 | 1009.6 |
| 20260506033515 | 64 | 9 | 1.0 | 6.0 | 0.00 | 0.00 | 0.00 | 44 | 1009.6 |
| 20260506033015 | 64 | 19 | 2.0 | 6.0 | 0.00 | 0.00 | 0.00 | 44 | 1009.6 |
| 20260506032516 | 64 | 24 | 3.0 | 9.0 | 0.00 | 0.00 | 0.00 | 43 | 1009.6 |
| 20260506032014 | 64 | 15 | 4.0 | 10.0 | 0.00 | 0.00 | 0.00 | 44 | 1009.6 |
| 20260506031515 | 64 | 9 | 3.0 | 11.0 | 0.00 | 0.00 | 0.00 | 44 | 1009.6 |
| 20260506031016 | 64 | 20 | 5.0 | 9.0 | 0.00 | 0.00 | 0.00 | 43 | 1009.6 |
| 20260506030513 | 64 | 24 | 3.0 | 9.0 | 0.00 | 0.00 | 0.00 | 43 | 1009.6 |
| 20260506030015 | 64 | 28 | 4.0 | 9.0 | 0.00 | 0.00 | 0.00 | 43 | 1009.6 |
| 20260506025512 | 64 | 13 | 2.0 | 6.0 | 0.00 | 0.00 | 0.00 | 44 | 1009.7 |
| 20260506025013 | 64 | 12 | 3.0 | 6.0 | 0.00 | 0.00 | 0.00 | 43 | 1009.6 |
| 20260506024511 | 64 | 360 | 2.0 | 5.0 | 0.00 | 0.00 | 0.00 | 44 | 1009.6 |
| 20260506024011 | 64 | 9 | 2.0 | 5.0 | 0.00 | 0.00 | 0.00 | 44 | 1009.7 |
| 20260506023514 | 64 | 19 | 3.0 | 5.0 | 0.00 | 0.00 | 0.00 | 44 | 1009.6 |
| 20260506023010 | 64 | 17 | 3.0 | 8.0 | 0.00 | 0.00 | 0.00 | 44 | 1009.7 |
| 20260506022509 | 64 | 5 | 3.0 | 8.0 | 0.00 | 0.00 | 0.00 | 44 | 1009.7 |
| 20260506022012 | 64 | 9 | 4.0 | 7.0 | 0.00 | 0.00 | 0.00 | 44 | 1009.7 |
| 20260506021516 | 64 | 12 | 3.0 | 6.0 | 0.00 | 0.00 | 0.00 | 43 | 1009.8 |
| 20260506021008 | 65 | 18 | 3.0 | 6.0 | 0.00 | 0.00 | 0.00 | 43 | 1009.7 |
| 20260506020507 | 65 | 12 | 2.0 | 9.0 | 0.00 | 0.00 | 0.00 | 43 | 1009.8 |
| 20260506020006 | 65 | 355 | 3.0 | 9.0 | 0.00 | 0.00 | 0.00 | 43 | 1009.8 |
| 20260506015505 | 65 | 29 | 3.0 | 6.0 | 0.00 | 0.00 | 0.00 | 43 | 1009.9 |
| 20260506015009 | 65 | 77 | 4.0 | 7.0 | 0.00 | 0.00 | 0.00 | 43 | 1009.9 |
| 20260506014504 | 65 | 30 | 3.0 | 8.0 | 0.00 | 0.00 | 0.00 | 43 | 1010.0 |
| 20260506014003 | 65 | 13 | 3.0 | 8.0 | 0.00 | 0.00 | 0.00 | 43 | 1010.0 |
| 20260506013502 | 65 | 42 | 4.0 | 8.0 | 0.00 | 0.00 | 0.00 | 43 | 1010.0 |
| 20260506013002 | 65 | 11 | 4.0 | 7.0 | 0.00 | 0.00 | 0.00 | 43 | 1010.1 |
| 20260506012501 | 65 | 26 | 5.0 | 7.0 | 0.00 | 0.00 | 0.00 | 43 | 1010.1 |
| 20260506012100 | 66 | 15 | 3.0 | 10.0 | 0.00 | 0.00 | 0.00 | 43 | 1010.1 |
| 20260506011600 | 66 | 28 | 5.0 | 10.0 | 0.00 | 0.00 | 0.00 | 42 | 1010.2 |
| 20260506011100 | 66 | 32 | 3.0 | 10.0 | 0.00 | 0.00 | 0.00 | 42 | 1010.1 |
| 20260506010559 | 66 | 355 | 6.0 | 15.0 | 0.00 | 0.00 | 0.00 | 43 | 1010.2 |
| 20260506010117 | 66 | 344 | 5.0 | 15.0 | 0.00 | 0.00 | 0.00 | 42 | 1010.2 |
| 20260506005559 | 66 | 346 | 5.0 | 11.0 | 0.00 | 0.00 | 0.00 | 42 | 1010.1 |
| 20260506005058 | 66 | 84 | 3.0 | 6.0 | 0.00 | 0.00 | 0.00 | 42 | 1010.3 |
| 20260506004557 | 66 | 355 | 2.0 | 11.0 | 0.00 | 0.00 | 0.00 | 42 | 1010.3 |
| 20260506004055 | 66 | 360 | 5.0 | 11.0 | 0.00 | 0.00 | 0.00 | 42 | 1010.2 |
| 20260506003556 | 66 | 52 | 4.0 | 12.0 | 0.00 | 0.00 | 0.00 | 42 | 1010.4 |
| 20260506003055 | 67 | 351 | 6.0 | 17.0 | 0.00 | 0.00 | 0.00 | 42 | 1010.4 |
| 20260506002553 | 67 | 360 | 11.0 | 17.0 | 0.00 | 0.00 | 0.00 | 43 | 1010.4 |
| 20260506002052 | 67 | 348 | 7.0 | 12.0 | 0.00 | 0.00 | 0.00 | 42 | 1010.4 |
| 20260506001552 | 67 | 360 | 4.0 | 13.0 | 0.00 | 0.00 | 0.00 | 42 | 1010.4 |
| 20260506001053 | 67 | 5 | 3.0 | 17.0 | 0.00 | 0.00 | 0.00 | 41 | 1010.6 |
| 20260506000551 | 67 | 348 | 6.0 | 17.0 | 0.00 | 0.00 | 0.00 | 41 | 1010.5 |
| 20260506000050 | 67 | 360 | 7.0 | 15.0 | 0.00 | 0.00 | 0.00 | 40 | 1010.5 |
| 20260505235548 | 68 | 30 | 7.0 | 13.0 | 0.00 | 0.00 | 0.00 | 39 | 1010.4 |
| 20260505235052 | 68 | 360 | 6.0 | 13.0 | 0.00 | 0.00 | 0.00 | 40 | 1010.4 |
| 20260505234603 | 68 | 5 | 9.0 | 13.0 | 0.00 | 0.00 | 0.00 | 39 | 1010.5 |
| 20260505234046 | 68 | 9 | 4.0 | 11.0 | 0.00 | 0.00 | 0.00 | 39 | 1010.4 |
| 20260505233545 | 68 | 5 | 6.0 | 10.0 | 0.00 | 0.00 | 0.00 | 38 | 1010.4 |
| 20260505233045 | 68 | 355 | 3.0 | 10.0 | 0.00 | 0.00 | 0.00 | 38 | 1010.5 |
| 20260505232545 | 68 | 24 | 5.0 | 12.0 | 0.00 | 0.00 | 0.00 | 38 | 1010.4 |
| 20260505232046 | 68 | 5 | 4.0 | 12.0 | 0.00 | 0.00 | 0.00 | 39 | 1010.4 |
| 20260505231545 | 68 | 355 | 5.0 | 10.0 | 0.00 | 0.00 | 0.00 | 38 | 1010.4 |
| 20260505231043 | 68 | 360 | 2.0 | 9.0 | 0.00 | 0.00 | 0.00 | 39 | 1010.4 |
| 20260505230543 | 69 | 16 | 3.0 | 11.0 | 0.00 | 0.00 | 0.00 | 38 | 1010.4 |
| 20260505230043 | 69 | 12 | 7.0 | 11.0 | 0.00 | 0.00 | 0.00 | 38 | 1010.4 |
| 20260505225544 | 69 | 39 | 5.0 | 15.0 | 0.00 | 0.00 | 0.00 | 38 | 1010.4 |
| 20260505225043 | 69 | 355 | 5.0 | 15.0 | 0.00 | 0.00 | 0.00 | 38 | 1010.4 |
| 20260505224543 | 69 | 22 | 5.0 | 14.0 | 0.00 | 0.00 | 0.00 | 38 | 1010.5 |
| 20260505224045 | 69 | 360 | 7.0 | 14.0 | 0.00 | 0.00 | 0.00 | 38 | 1010.5 |
| 20260505223541 | 69 | 355 | 4.0 | 13.0 | 0.00 | 0.00 | 0.00 | 38 | 1010.6 |
| 20260505223041 | 69 | 22 | 7.0 | 13.0 | 0.00 | 0.00 | 0.00 | 38 | 1010.6 |
| 20260505222542 | 69 | 350 | 5.0 | 12.0 | 0.00 | 0.00 | 0.00 | 37 | 1010.7 |
| 20260505222039 | 69 | 360 | 6.0 | 11.0 | 0.00 | 0.00 | 0.00 | 37 | 1010.8 |
| 20260505221539 | 69 | 20 | 5.0 | 14.0 | 0.00 | 0.00 | 0.00 | 37 | 1010.7 |
| 20260505221038 | 69 | 17 | 5.0 | 20.0 | 0.00 | 0.00 | 0.00 | 37 | 1010.7 |
| 20260505220539 | 69 | 355 | 11.0 | 20.0 | 0.00 | 0.00 | 0.00 | 37 | 1010.7 |
| 20260505220041 | 69 | 26 | 5.0 | 12.0 | 0.00 | 0.00 | 0.00 | 37 | 1010.6 |
| 20260505215537 | 69 | 355 | 4.0 | 14.0 | 0.00 | 0.00 | 0.00 | 36 | 1010.7 |
| 20260505215039 | 69 | 360 | 8.0 | 17.0 | 0.00 | 0.00 | 0.00 | 37 | 1010.8 |
| 20260505214559 | 69 | 32 | 10.0 | 17.0 | 0.00 | 0.00 | 0.00 | 37 | 1010.7 |
| 20260505214037 | 69 | 22 | 6.0 | 13.0 | 0.00 | 0.00 | 0.00 | 37 | 1010.8 |
| 20260505213539 | 69 | 344 | 3.0 | 13.0 | 0.00 | 0.00 | 0.00 | 37 | 1010.8 |
| 20260505213036 | 69 | 5 | 7.0 | 17.0 | 0.00 | 0.00 | 0.00 | 37 | 1010.8 |
| 20260505212535 | 69 | 25 | 7.0 | 17.0 | 0.00 | 0.00 | 0.00 | 37 | 1010.8 |
| 20260505212034 | 69 | 360 | 7.0 | 17.0 | 0.00 | 0.00 | 0.00 | 37 | 1010.8 |
| 20260505211535 | 69 | 28 | 9.0 | 17.0 | 0.00 | 0.00 | 0.00 | 37 | 1010.7 |
| 20260505211035 | 69 | 5 | 6.0 | 13.0 | 0.00 | 0.00 | 0.00 | 37 | 1010.9 |
| 20260505210534 | 69 | 360 | 5.0 | 13.0 | 0.00 | 0.00 | 0.00 | 36 | 1010.9 |
| 20260505210033 | 69 | 342 | 4.0 | 14.0 | 0.00 | 0.00 | 0.00 | 36 | 1010.8 |
| 20260505205535 | 69 | 5 | 8.0 | 13.0 | 0.00 | 0.00 | 0.00 | 36 | 1010.8 |
| 20260505205034 | 69 | 355 | 3.0 | 12.0 | 0.00 | 0.00 | 0.00 | 36 | 1010.7 |
| 20260505204537 | 69 | 351 | 5.0 | 12.0 | 0.00 | 0.00 | 0.00 | 36 | 1010.8 |
| 20260505204034 | 69 | 25 | 2.0 | 12.0 | 0.00 | 0.00 | 0.00 | 36 | 1010.8 |
| 20260505203532 | 69 | 360 | 6.0 | 12.0 | 0.00 | 0.00 | 0.00 | 35 | 1010.8 |
| 20260505203040 | 69 | 5 | 5.0 | 13.0 | 0.00 | 0.00 | 0.00 | 36 | 1010.7 |
| 20260505202532 | 69 | 5 | 7.0 | 13.0 | 0.00 | 0.00 | 0.00 | 35 | 1010.8 |
| 20260505202033 | 69 | 45 | 8.0 | 19.0 | 0.00 | 0.00 | 0.00 | 35 | 1011.0 |
| 20260505201537 | 69 | 340 | 7.0 | 19.0 | 0.00 | 0.00 | 0.00 | 36 | 1010.9 |
| 20260505201031 | 68 | 350 | 7.0 | 14.0 | 0.00 | 0.00 | 0.00 | 37 | 1011.0 |
| 20260505200531 | 68 | 349 | 5.0 | 14.0 | 0.00 | 0.00 | 0.00 | 38 | 1010.9 |
| 20260505200031 | 67 | 325 | 5.0 | 11.0 | 0.00 | 0.00 | 0.00 | 40 | 1010.8 |
| 20260505195529 | 66 | 38 | 5.0 | 10.0 | 0.00 | 0.00 | 0.00 | 44 | 1010.9 |
| 20260505195030 | 65 | 360 | 5.0 | 10.0 | 0.00 | 0.00 | 0.00 | 59 | 1010.9 |
| 20260505194531 | 66 | 20 | 2.0 | 4.0 | 0.00 | 0.00 | 0.00 | 64 | 1011.0 |
| 20260505194029 | 66 | 54 | 1.0 | 6.0 | 0.00 | 0.00 | 0.00 | 60 | 1010.9 |
| 20260505193528 | 65 | 5 | 2.0 | 6.0 | 0.00 | 0.00 | 0.00 | 53 | 1010.9 |
| 20260505193028 | 65 | 339 | 0.0 | 4.0 | 0.00 | 0.00 | 0.00 | 55 | 1010.9 |
| 20260505192530 | 65 | 280 | 2.0 | 4.0 | 0.00 | 0.00 | 0.00 | 64 | 1010.9 |
| 20260505192028 | 66 | 271 | 1.0 | 3.0 | 0.00 | 0.00 | 0.00 | 65 | 1010.9 |
| 20260505191529 | 66 | 194 | 0.0 | 2.0 | 0.00 | 0.00 | 0.00 | 65 | 1010.8 |
| 20260505191027 | 66 | 194 | 0.0 | 2.0 | 0.00 | 0.00 | 0.00 | 65 | 1010.7 |
| 20260505190528 | 66 | 194 | 0.0 | 2.0 | 0.00 | 0.00 | 0.00 | 65 | 1010.8 |
| 20260505190027 | 66 | 194 | 0.0 | 2.0 | 0.00 | 0.00 | 0.00 | 64 | 1010.7 |
| 20260505185528 | 67 | 194 | 0.0 | 2.0 | 0.00 | 0.00 | 0.00 | 64 | 1010.8 |
| 20260505185027 | 67 | 194 | 0.0 | 0.0 | 0.00 | 0.00 | 0.00 | 63 | 1010.8 |
| 20260505184528 | 67 | 194 | 0.0 | 1.0 | 0.00 | 0.00 | 0.00 | 63 | 1010.7 |
| 20260505184026 | 67 | 194 | 0.0 | 2.0 | 0.00 | 0.00 | 0.00 | 63 | 1010.8 |
| 20260505183526 | 67 | 194 | 1.0 | 3.0 | 0.00 | 0.00 | 0.00 | 62 | 1010.8 |
| 20260505183026 | 67 | 194 | 1.0 | 3.0 | 0.00 | 0.00 | 0.00 | 62 | 1010.8 |
| 20260505182527 | 67 | 160 | 1.0 | 3.0 | 0.00 | 0.00 | 0.00 | 62 | 1010.7 |
| 20260505182026 | 68 | 144 | 1.0 | 3.0 | 0.00 | 0.00 | 0.00 | 61 | 1010.7 |
| 20260505181526 | 68 | 144 | 0.0 | 0.0 | 0.00 | 0.00 | 0.00 | 62 | 1010.6 |
| 20260505181025 | 68 | 144 | 0.0 | 1.0 | 0.00 | 0.00 | 0.00 | 61 | 1010.6 |
| 20260505180525 | 67 | 144 | 0.0 | 1.0 | 0.00 | 0.00 | 0.00 | 61 | 1010.5 |
| 20260505180048 | 67 | 144 | 0.0 | 2.0 | 0.00 | 0.00 | 0.00 | 62 | 1010.6 |
| 20260505175528 | 67 | 144 | 0.0 | 2.0 | 0.00 | 0.00 | 0.00 | 61 | 1010.6 |
| 20260505175029 | 67 | 144 | 1.0 | 3.0 | 0.00 | 0.00 | 0.00 | 61 | 1010.6 |
| 20260505174546 | 67 | 144 | 1.0 | 4.0 | 0.00 | 0.00 | 0.00 | 61 | 1010.6 |
| 20260505174024 | 67 | 144 | 1.0 | 4.0 | 0.00 | 0.00 | 0.00 | 61 | 1010.8 |
| 20260505173526 | 67 | 201 | 0.0 | 3.0 | 0.00 | 0.00 | 0.00 | 61 | 1010.8 |
| 20260505173030 | 67 | 202 | 0.0 | 4.0 | 0.00 | 0.00 | 0.00 | 62 | 1011.0 |
| 20260505172522 | 67 | 202 | 0.0 | 5.0 | 0.00 | 0.00 | 0.00 | 62 | 1011.1 |
| 20260505172023 | 67 | 252 | 1.0 | 8.0 | 0.00 | 0.00 | 0.00 | 62 | 1011.2 |
| 20260505171524 | 67 | 163 | 5.0 | 10.0 | 0.00 | 0.00 | 0.00 | 62 | 1011.3 |
| 20260505171021 | 67 | 161 | 5.0 | 10.0 | 0.00 | 0.00 | 0.00 | 61 | 1011.2 |
| 20260505170521 | 67 | 220 | 4.0 | 12.0 | 0.00 | 0.00 | 0.00 | 61 | 1011.0 |
| 20260505170022 | 68 | 141 | 5.0 | 12.0 | 0.00 | 0.00 | 0.00 | 59 | 1011.0 |
| 20260505165522 | 68 | 184 | 5.0 | 10.0 | 0.00 | 0.00 | 0.00 | 58 | 1011.1 |
| 20260505165024 | 68 | 213 | 5.0 | 10.0 | 0.00 | 0.00 | 0.00 | 59 | 1011.1 |
| 20260505164521 | 68 | 175 | 6.0 | 11.0 | 0.00 | 0.00 | 0.00 | 59 | 1010.9 |
| 20260505164020 | 68 | 154 | 7.0 | 10.0 | 0.00 | 0.00 | 0.00 | 59 | 1010.9 |
| 20260505163520 | 69 | 169 | 6.0 | 13.0 | 0.00 | 0.00 | 0.00 | 58 | 1010.9 |
| 20260505163021 | 69 | 183 | 4.0 | 14.0 | 0.00 | 0.00 | 0.00 | 57 | 1011.0 |
| 20260505162521 | 69 | 194 | 6.0 | 14.0 | 0.00 | 0.00 | 0.00 | 57 | 1011.0 |
| 20260505162021 | 69 | 164 | 5.0 | 13.0 | 0.00 | 0.00 | 0.00 | 57 | 1010.9 |
| 20260505161519 | 70 | 162 | 7.0 | 14.0 | 0.00 | 0.00 | 0.00 | 56 | 1010.9 |
| 20260505161024 | 70 | 177 | 8.0 | 18.0 | 0.00 | 0.00 | 0.00 | 55 | 1010.8 |
| 20260505160519 | 70 | 168 | 8.0 | 19.0 | 0.00 | 0.00 | 0.00 | 55 | 1010.9 |
| 20260505153015 | 71 | 145 | 5.0 | 14.0 | 0.00 | 0.00 | 0.00 | 51 | 1010.9 |
| 20260505152516 | 71 | 186 | 8.0 | 14.0 | 0.00 | 0.00 | 0.00 | 50 | 1011.0 |
| 20260505152015 | 71 | 191 | 7.0 | 14.0 | 0.00 | 0.00 | 0.00 | 49 | 1011.0 |
| 20260505151515 | 71 | 225 | 5.0 | 14.0 | 0.00 | 0.00 | 0.00 | 49 | 1011.0 |
| 20260505151014 | 71 | 225 | 6.0 | 15.0 | 0.00 | 0.00 | 0.00 | 49 | 1011.0 |
| 20260505150517 | 71 | 189 | 7.0 | 15.0 | 0.00 | 0.00 | 0.00 | 48 | 1011.0 |
| 20260505140611 | 71 | 212 | 8.0 | 17.0 | 0.00 | 0.00 | 0.00 | 53 | 1011.4 |
| 20260505125004 | 72 | 209 | 4.0 | 12.0 | 0.00 | 0.00 | 0.00 | 53 | 1011.9 |
| 20260505124503 | 71 | 166 | 4.0 | 15.0 | 0.00 | 0.00 | 0.00 | 54 | 1011.9 |
| 20260505124003 | 72 | 189 | 9.0 | 15.0 | 0.00 | 0.00 | 0.00 | 51 | 1012.0 |
| 20260505123504 | 73 | 188 | 6.0 | 11.0 | 0.00 | 0.00 | 0.00 | 50 | 1012.0 |
| 20260505123002 | 73 | 146 | 6.0 | 11.0 | 0.00 | 0.00 | 0.00 | 48 | 1012.0 |
| 20260505122503 | 74 | 198 | 7.0 | 11.0 | 0.00 | 0.00 | 0.00 | 45 | 1012.0 |
| 20260505122001 | 74 | 215 | 3.0 | 16.0 | 0.00 | 0.00 | 0.00 | 46 | 1012.0 |
| 20260505121501 | 73 | 159 | 8.0 | 16.0 | 0.00 | 0.00 | 0.00 | 43 | 1012.0 |
| 20260505121001 | 73 | 173 | 7.0 | 15.0 | 0.00 | 0.00 | 0.00 | 43 | 1012.0 |
| 20260505120500 | 73 | 166 | 7.0 | 15.0 | 0.00 | 0.00 | 0.00 | 43 | 1012.1 |
| 20260505120000 | 74 | 178 | 6.0 | 12.0 | 0.00 | 0.00 | 0.00 | 43 | 1012.1 |
| 20260505115600 | 73 | 194 | 4.0 | 10.0 | 0.00 | 0.00 | 0.00 | 43 | 1012.2 |
| 20260505115100 | 73 | 183 | 7.0 | 13.0 | 0.00 | 0.00 | 0.00 | 43 | 1012.2 |
| 20260505114601 | 73 | 175 | 7.0 | 12.0 | 0.00 | 0.00 | 0.00 | 42 | 1012.3 |
| 20260505114058 | 73 | 198 | 5.0 | 10.0 | 0.00 | 0.00 | 0.00 | 43 | 1012.5 |
| 20260505113600 | 73 | 208 | 5.0 | 11.0 | 0.00 | 0.00 | 0.00 | 42 | 1012.4 |
| 20260505113111 | 73 | 207 | 6.0 | 11.0 | 0.00 | 0.00 | 0.00 | 44 | 1012.4 |
| 20260505112557 | 73 | 187 | 4.0 | 8.0 | 0.00 | 0.00 | 0.00 | 44 | 1012.5 |
| 20260505112056 | 73 | 165 | 1.0 | 11.0 | 0.00 | 0.00 | 0.00 | 52 | 1012.4 |
| 20260505111555 | 72 | 86 | 1.0 | 12.0 | 0.00 | 0.00 | 0.00 | 51 | 1012.6 |
| 20260505111054 | 72 | 103 | 3.0 | 12.0 | 0.00 | 0.00 | 0.00 | 50 | 1012.8 |
| 20260505110556 | 72 | 96 | 5.0 | 13.0 | 0.00 | 0.00 | 0.00 | 51 | 1012.8 |
| 20260505110153 | 72 | 101 | 6.0 | 13.0 | 0.00 | 0.00 | 0.00 | 52 | 1012.8 |
| 20260505102044 | 70 | 66 | 3.0 | 9.0 | 0.00 | 0.00 | 0.00 | 52 | 1012.9 |
| 20260505101543 | 70 | 117 | 4.0 | 10.0 | 0.00 | 0.00 | 0.00 | 52 | 1013.0 |
| 20260505101042 | 69 | 103 | 5.0 | 13.0 | 0.00 | 0.00 | 0.00 | 53 | 1013.0 |
| 20260505100541 | 69 | 57 | 3.0 | 13.0 | 0.00 | 0.00 | 0.00 | 53 | 1013.1 |
| 20260505100042 | 69 | 132 | 4.0 | 11.0 | 0.00 | 0.00 | 0.00 | 54 | 1012.9 |
| 20260505095540 | 69 | 150 | 6.0 | 13.0 | 0.00 | 0.00 | 0.00 | 54 | 1013.0 |
| 20260505095039 | 69 | 146 | 6.0 | 13.0 | 0.00 | 0.00 | 0.00 | 55 | 1012.9 |
| 20260505094538 | 69 | 155 | 6.0 | 11.0 | 0.00 | 0.00 | 0.00 | 55 | 1012.9 |
| 20260505094038 | 69 | 144 | 6.0 | 11.0 | 0.00 | 0.00 | 0.00 | 56 | 1012.8 |
| 20260505093537 | 69 | 134 | 7.0 | 10.0 | 0.00 | 0.00 | 0.00 | 56 | 1012.8 |
| 20260505093038 | 69 | 119 | 7.0 | 9.0 | 0.00 | 0.00 | 0.00 | 55 | 1012.7 |
| 20260505092536 | 69 | 147 | 4.0 | 8.0 | 0.00 | 0.00 | 0.00 | 55 | 1012.6 |
| 20260505092034 | 69 | 148 | 3.0 | 11.0 | 0.00 | 0.00 | 0.00 | 57 | 1012.6 |
| 20260505091540 | 69 | 130 | 5.0 | 11.0 | 0.00 | 0.00 | 0.00 | 55 | 1012.6 |
| 20260505091033 | 69 | 126 | 4.0 | 11.0 | 0.00 | 0.00 | 0.00 | 57 | 1012.6 |
| 20260505090531 | 69 | 126 | 5.0 | 10.0 | 0.00 | 0.00 | 0.00 | 57 | 1012.7 |
| 20260505090030 | 69 | 103 | 5.0 | 10.0 | 0.00 | 0.00 | 0.00 | 58 | 1012.7 |
| 20260505085532 | 69 | 120 | 5.0 | 9.0 | 0.00 | 0.00 | 0.00 | 57 | 1012.7 |
| 20260505085028 | 69 | 106 | 4.0 | 9.0 | 0.00 | 0.00 | 0.00 | 59 | 1012.6 |
| 20260505084529 | 68 | 126 | 4.0 | 9.0 | 0.00 | 0.00 | 0.00 | 57 | 1012.7 |
| 20260505084027 | 68 | 123 | 4.0 | 9.0 | 0.00 | 0.00 | 0.00 | 57 | 1012.6 |
| 20260505083525 | 68 | 128 | 4.0 | 8.0 | 0.00 | 0.00 | 0.00 | 57 | 1012.6 |
| 20260505083026 | 68 | 117 | 4.0 | 8.0 | 0.00 | 0.00 | 0.00 | 57 | 1012.5 |
| 20260505082523 | 68 | 118 | 5.0 | 8.0 | 0.00 | 0.00 | 0.00 | 57 | 1012.5 |
| 20260505082023 | 68 | 100 | 4.0 | 8.0 | 0.00 | 0.00 | 0.00 | 56 | 1012.6 |
| 20260505081522 | 68 | 128 | 4.0 | 7.0 | 0.00 | 0.00 | 0.00 | 55 | 1012.6 |
| 20260505081023 | 68 | 126 | 3.0 | 6.0 | 0.00 | 0.00 | 0.00 | 55 | 1012.7 |
| 20260505080519 | 67 | 117 | 3.0 | 7.0 | 0.00 | 0.00 | 0.00 | 55 | 1012.6 |
| 20260505080022 | 67 | 135 | 3.0 | 7.0 | 0.00 | 0.00 | 0.00 | 56 | 1012.7 |
| 20260505075518 | 66 | 119 | 3.0 | 7.0 | 0.00 | 0.00 | 0.00 | 56 | 1012.7 |
| 20260505075021 | 66 | 121 | 3.0 | 8.0 | 0.00 | 0.00 | 0.00 | 56 | 1012.8 |
| 20260505074518 | 66 | 124 | 5.0 | 8.0 | 0.00 | 0.00 | 0.00 | 56 | 1012.8 |
| 20260505074018 | 66 | 130 | 4.0 | 7.0 | 0.00 | 0.00 | 0.00 | 56 | 1012.9 |
| 20260505073517 | 66 | 124 | 3.0 | 6.0 | 0.00 | 0.00 | 0.00 | 55 | 1012.9 |
| 20260505073016 | 67 | 116 | 3.0 | 4.0 | 0.00 | 0.00 | 0.00 | 57 | 1012.8 |
| 20260505072521 | 67 | 109 | 3.0 | 4.0 | 0.00 | 0.00 | 0.00 | 56 | 1012.8 |
| 20260505072014 | 67 | 121 | 2.0 | 3.0 | 0.00 | 0.00 | 0.00 | 55 | 1012.8 |
| 20260505071513 | 67 | 120 | 1.0 | 4.0 | 0.00 | 0.00 | 0.00 | 55 | 1012.8 |
| 20260505071013 | 67 | 118 | 2.0 | 4.0 | 0.00 | 0.00 | 0.00 | 53 | 1012.8 |
| 20260505070516 | 67 | 47 | 0.0 | 1.0 | 0.00 | 0.00 | 0.00 | 51 | 1012.7 |
| 20260505070013 | 67 | 47 | 0.0 | 1.0 | 0.00 | 0.00 | 0.00 | 52 | 1012.8 |
| 20260505065516 | 67 | 47 | 0.0 | 3.0 | 0.00 | 0.00 | 0.00 | 52 | 1012.7 |
| 20260505065011 | 67 | 13 | 0.0 | 4.0 | 0.00 | 0.00 | 0.00 | 53 | 1012.7 |
| 20260505064510 | 66 | 12 | 2.0 | 4.0 | 0.00 | 0.00 | 0.00 | 54 | 1012.6 |
| 20260505064008 | 65 | 11 | 1.0 | 4.0 | 0.00 | 0.00 | 0.00 | 56 | 1012.7 |
| 20260505063507 | 64 | 5 | 2.0 | 4.0 | 0.00 | 0.00 | 0.00 | 58 | 1012.7 |
| 20260505063007 | 63 | 5 | 3.0 | 4.0 | 0.00 | 0.00 | 0.00 | 58 | 1012.6 |
| 20260505062510 | 62 | 355 | 1.0 | 4.0 | 0.00 | 0.00 | 0.00 | 59 | 1012.7 |
| 20260505062008 | 61 | 355 | 0.0 | 4.0 | 0.00 | 0.00 | 0.00 | 60 | 1012.7 |
| 20260505061508 | 61 | 355 | 2.0 | 4.0 | 0.00 | 0.00 | 0.00 | 59 | 1012.7 |
| 20260505061002 | 61 | 355 | 1.0 | 5.0 | 0.00 | 0.00 | 0.00 | 59 | 1012.6 |
| 20260505060501 | 61 | 69 | 1.0 | 4.0 | 0.00 | 0.00 | 0.00 | 59 | 1012.5 |
| 20260505060105 | 61 | 290 | 0.0 | 3.0 | 0.00 | 0.00 | 0.00 | 59 | 1012.6 |
| 20260505055559 | 61 | 290 | 1.0 | 5.0 | 0.00 | 0.00 | 0.00 | 59 | 1012.5 |
| 20260505055058 | 61 | 306 | 2.0 | 8.0 | 0.00 | 0.00 | 0.00 | 60 | 1012.5 |
| 20260505054606 | 61 | 343 | 2.0 | 8.0 | 0.00 | 0.00 | 0.00 | 60 | 1012.4 |
| 20260505054057 | 61 | 348 | 3.0 | 9.0 | 0.00 | 0.00 | 0.00 | 60 | 1012.2 |
| 20260505053557 | 61 | 325 | 2.0 | 9.0 | 0.00 | 0.00 | 0.00 | 60 | 1012.1 |
| 20260505053058 | 61 | 335 | 3.0 | 10.0 | 0.00 | 0.00 | 0.00 | 60 | 1012.2 |
| 20260505052555 | 61 | 15 | 4.0 | 10.0 | 0.00 | 0.00 | 0.00 | 60 | 1012.2 |